Regional Weather Roundup
Issued by NWS

Home | Current Version | Previous Version | Graphics & Text | Print | Product List | Glossary On
Versions: 1 2 3 4 5 6 7 8 9 10 11 12 13 14 15 16 17 18 19 20 21 22 23 24 25 26 27 28 29 30 31 32 33 34 35 36 37 38 39 40 41 42 43 44 45 46 47 48 49 50
000
ASUS44 KMEG 280510
RWRTN
TENNESSEE HOURLY STATE WEATHER ROUNDUP
NATIONAL WEATHER SERVICE MEMPHIS TN
1200 AM CDT MON JUL 28 2014

TNZ002-004-019-021-049-052-054-088>092-280600-
WEST TENNESSEE

CITY           SKY/WX    TMP DP  RH WIND       PRES   REMARKS
MEMPHIS INTL   PTCLDY    84  77  79 W6        29.96R HX  94
NWS MEMPHIS      N/A     82 N/A N/A MISG        N/A
JACKSON        PTCLDY    81  75  82 W8        29.94R
DYERSBURG      CLEAR     79  66  65 CALM      29.96R
UNION CITY     CLEAR     77  64  65 N7        29.93R
PARIS          CLEAR     75  66  73 N5        29.95R
LEXINGTON      PTCLDY    79  75  89 SW3       29.92S
SAVANNAH       MOCLDY    81  81 100 W6        29.95S HX  92
$$

TNZ008-025-027-028-033-062-065-066-280600-
NORTH MIDDLE TENNESSEE

CITY           SKY/WX    TMP DP  RH WIND       PRES   REMARKS
NASHVILLE      MOCLDY    77  74  90 W7        29.91S
DICKSON        MOCLDY    72  70  94 NW6       29.94R
PORTLAND       PTCLDY    72  70  94 W5        29.91R
CLARKSVILLE    PTCLDY    76  63  64 N8        29.92R
LEBANON        MOCLDY    72  69  90 CALM      29.89R
SMYRNA         MOCLDY    76  75  96 W12       29.91R
MURFREESBORO   MOCLDY    75  73  93 CALM      29.90
COOKEVILLE     PTCLDY    72  72 100 SW3       29.92R
GALLATIN       MOCLDY    72  72 100 NW5       29.91R
CROSSVILLE     LGT RAIN  69  66  90 W5        29.98R
$$

TNZ061-075-076-078-094-096-097-280600-
SOUTH MIDDLE TENNESSEE

CITY           SKY/WX    TMP DP  RH WIND       PRES   REMARKS
LEWISBURG      MOCLDY    75  69  81 CALM      29.93R
FAYETTEVILLE   MOCLDY    79  73  83 SW7       29.95S
TULLAHOMA      MOCLDY    81  73  78 SW10      29.95R
WINCHESTER     PTCLDY    81  75  83 W7        29.94F
MCMINNVILLE    MOCLDY    72  72 100 W9        29.93F
COLUMBIA       CLOUDY    79  72  78 CALM      29.91S
SHELBYVILLE    PTCLDY    82  75  78 W15       29.94R
$$

TNZ017-018-042-046-047-280600-
NORTHEAST TENNESSEE

CITY           SKY/WX    TMP DP  RH WIND       PRES   REMARKS
TRI CITIES     CLOUDY    67  63  87 S5        29.91F
ELIZABETHTON   DRIZZLE   64  64 100 NW3         N/A
$$

TNZ012-013-036-069-073-074-280600-
CENTRAL EAST TENNESSEE

CITY           SKY/WX    TMP DP  RH WIND       PRES   REMARKS
KNOXVILLE      TSTM      70  69  97 CALM      29.91R FOG
OAK RIDGE      LGT RAIN  71  69  93 CALM      29.92F
GATLINBURG     CLOUDY    66  64  94 VRB3      29.93R
MORRISTOWN     MOCLDY    66  66 100 S6        29.92S
$$

TNZ083-085-099-280600-
SOUTHEAST TENNESSEE

CITY           SKY/WX    TMP DP  RH WIND       PRES   REMARKS
CHATTANOOGA    CLOUDY    84  72  67 SW6G16    29.92S
$$

SKY/WX REPORTED AS FAIR MEANS FEW OR NO CLOUDS BELOW
12 THOUSAND FEET.




USA.gov is the U.S. government's official web portal to all federal, state and local government web resources and services.